EST,Max TemperatureF,Mean TemperatureF,Min TemperatureF,Max Dew PointF,MeanDew PointF,Min DewpointF,Max Humidity, Mean Humidity, Min Humidity, Max Sea Level PressureIn, Mean Sea Level PressureIn, Min Sea Level PressureIn, Max VisibilityMiles, Mean VisibilityMiles, Min VisibilityMiles, Max Wind SpeedMPH, Mean Wind SpeedMPH, Max Gust SpeedMPH,PrecipitationIn, CloudCover, Events, WindDirDegrees
2012-2-1,78,74,70,67,62,60,79,70,60,30.26,30.20,30.15,10,10,10,16,11,21,0.03,5,Rain,97
2012-2-2,71,69,67,68,66,62,97,89,81,30.18,30.14,30.10,10,7,1,21,6,23,0.23,8,Rain,6
2012-2-3,79,74,68,66,64,62,90,75,60,30.22,30.16,30.12,10,10,10,22,14,28,0.03,7,Rain,77
2012-2-4,78,75,71,68,64,62,90,77,64,30.18,30.13,30.07,10,10,10,21,16,28,0.05,6,,92
2012-2-5,80,74,68,68,67,64,97,80,62,30.07,30.04,29.99,10,10,10,16,7,21,0.07,7,Rain,136
2012-2-6,77,73,68,72,68,66,100,88,76,30.08,30.03,29.99,10,8,1,18,8,23,0.76,8,Rain,103
2012-2-7,81,75,69,72,69,68,100,85,69,30.04,30.00,29.93,10,9,2,15,7,25,0.05,6,Rain,123
2012-2-8,78,73,67,70,66,62,100,85,69,30.06,30.01,29.98,10,10,10,17,9,21,0.00,6,,337
2012-2-9,77,72,67,66,63,61,87,74,60,30.11,30.05,30.00,10,10,7,18,12,24,T,7,Rain,38
2012-2-10,79,75,70,72,69,64,100,88,76,30.07,30.01,29.89,10,7,0,17,9,22,1.60,7,Fog-Rain,85
2012-2-11,72,63,54,67,58,43,100,72,44,30.08,29.94,29.87,10,10,10,24,15,31,0.13,5,Rain,289
2012-2-12,60,53,45,42,38,29,82,65,47,30.27,30.19,30.08,10,10,10,24,17,30,0.00,3,,335
2012-2-13,69,57,45,52,45,40,92,66,40,30.24,30.18,30.14,10,10,10,16,8,21,0.00,3,,75
2012-2-14,76,66,55,58,56,53,93,71,49,30.15,30.12,30.08,10,10,10,17,7,23,0.00,3,,154
2012-2-15,79,69,58,63,60,57,93,73,52,30.22,30.17,30.12,10,10,10,16,5,20,0.00,3,,135
2012-2-16,80,74,67,65,63,61,84,69,54,30.20,30.14,30.09,10,10,10,17,8,22,0.00,4,,158
2012-2-17,81,73,65,66,65,63,93,78,62,30.10,30.04,29.99,10,10,10,14,5,17,0.00,5,,193
2012-2-18,80,73,65,67,65,64,100,81,62,30.03,29.97,29.91,10,10,10,16,6,21,0.00,4,,174
2012-2-19,87,78,68,70,68,61,93,74,55,29.96,29.90,29.83,10,10,10,24,13,32,T,4,,225
2012-2-20,74,67,59,62,55,53,87,68,49,30.17,30.05,29.94,10,10,10,20,11,24,0.00,4,,336
2012-2-21,76,71,65,58,54,51,68,59,49,30.21,30.16,30.14,10,10,10,16,9,25,0.00,4,,106
2012-2-22,80,70,59,64,61,57,93,73,52,30.12,30.04,29.96,10,10,10,17,7,22,0.00,2,,194
2012-2-23,86,75,63,66,63,58,93,67,40,30.01,29.97,29.91,10,10,10,16,8,21,0.00,2,,215
2012-2-24,88,77,66,71,67,63,97,72,46,30.05,30.00,29.96,10,9,3,20,9,24,0.00,2,,196
2012-2-25,77,72,66,72,66,59,100,82,64,30.20,30.10,30.02,10,7,1,22,10,26,T,6,Rain,302
2012-2-26,74,72,70,66,63,59,79,74,68,30.27,30.23,30.19,10,10,10,22,15,26,T,8,,79
2012-2-27,82,77,72,70,67,66,84,73,62,30.28,30.24,30.21,10,10,10,21,15,25,T,5,,111
2012-2-28,81,76,71,70,67,66,87,75,62,30.26,30.22,30.19,10,10,10,15,9,20,0.00,4,,94
2012-2-29,82,77,71,70,68,66,84,78,71,30.23,30.17,30.12,10,9,1,18,11,35,0.87,4,Rain,131